Weather History for Olive Branch, MS

Change the Weather History Date:

Monday, February 24, 2014

  Actual Average (KMEM) Record (KMEM)
Temperature  
Mean Temperature 39 °F 48 °F  
Max Temperature 48 °F 57 °F 79 °F (1890)
Min Temperature 30 °F 39 °F 17 °F (1914)
Degree Days  
Heating Degree Days 26 17  
Month to date heating degree days 482  
Since 1 July heating degree days 2384  
Cooling Degree Days 0 0  
Month to date cooling degree days 0  
Year to date cooling degree days 1  
Moisture  
Dew Point 23 °F    
Average Humidity 58    
Maximum Humidity 75    
Minimum Humidity 32    
Precipitation  
Precipitation 0.00 in 0.16 in 1.90 in (1926)
Month to date precipitation 3.74  
Year to date precipitation 7.72  
Snow  
Snow 0.00 in 0.00 in 4.00 in (1960)
Month to date snowfall 1.2  
Since 1 July snowfall 3.3  
Snow Depth -    
Sea Level Pressure  
Sea Level Pressure 30.21 in    
Wind  
Wind Speed 10 mph (NE)    
Max Wind Speed 14 mph    
Max Gust Speed 21 mph    
Visibility 10 miles    
Events      
T = Trace of Precipitation, MM = Missing Value Source: NWS Daily Summary

Daily Weather History Graph

Daily Weather History Graph

Search for Another Location

Airport:

Trip Planner

Search our weather history database for the weather conditions in past years. The results will help you decide how hot, cold, wet, or windy it might be!

Date:

Astronomy

Feb. 24, 2014 Rise Set
Actual Time 6:34 AM CST 5:50 PM CST
Civil Twilight 6:09 AM CST 6:15 PM CST
Nautical Twilight 5:39 AM CST 6:45 PM CST
Astronomical Twilight 5:10 AM CST 7:14 PM CST
Moon 2:26 AM CST (2/24) 12:58 PM CST (2/24)
Length of Visible Light 12h 06m
Length of Day
11h 15m
Waning Crescent, 28% of the Moon is Illuminated
Feb 24
Waning Crescent
Mar 1
New
Mar 8
First Quarter
Mar 16
Full
Mar 23
Last Quarter

Hourly Weather History & Observations

Time (CST) Temp. Windchill Dew Point Humidity Pressure Visibility Wind Dir Wind Speed Gust Speed Precip Events Conditions
12:15 AM 35.6 °F 27.5 °F 28.4 °F 75% 30.22 in 10.0 mi NNE 11.5 mph 17.3 mph 0.00 in   Clear
12:35 AM 35.6 °F 28.0 °F 26.6 °F 70% 30.22 in 10.0 mi NNE 10.4 mph - 0.00 in   Clear
12:55 AM 33.8 °F 24.3 °F 24.8 °F 70% 30.23 in 10.0 mi NNE 13.8 mph - 0.00 in   Clear
1:15 AM 33.8 °F 24.3 °F 23.0 °F 65% 30.23 in 10.0 mi NNE 13.8 mph - 0.00 in   Clear
1:35 AM 33.8 °F 25.3 °F 23.0 °F 65% 30.23 in 10.0 mi NE 11.5 mph 18.4 mph 0.00 in   Clear
1:55 AM 32.0 °F 23.6 °F 23.0 °F 69% 30.22 in 10.0 mi NE 10.4 mph - 0.00 in   Clear
2:15 AM 32.0 °F 23.0 °F 23.0 °F 69% 30.22 in 10.0 mi NNE 11.5 mph - 0.00 in   Clear
2:35 AM 32.0 °F 23.0 °F 23.0 °F 69% 30.22 in 10.0 mi NNE 11.5 mph - 0.00 in   Clear
2:55 AM 32.0 °F 23.0 °F 23.0 °F 69% 30.23 in 10.0 mi NNE 11.5 mph - 0.00 in   Clear
3:15 AM 32.0 °F 23.6 °F 23.0 °F 69% 30.23 in 10.0 mi NNE 10.4 mph - 0.00 in   Clear
3:35 AM 32.0 °F 23.6 °F 23.0 °F 69% 30.23 in 10.0 mi NE 10.4 mph 16.1 mph 0.00 in   Clear
3:55 AM 32.0 °F 23.0 °F 23.0 °F 69% 30.22 in 10.0 mi NE 11.5 mph - 0.00 in   Clear
4:15 AM 32.0 °F 23.0 °F 23.0 °F 69% 30.23 in 10.0 mi NE 11.5 mph - 0.00 in   Clear
4:35 AM 32.0 °F 23.0 °F 23.0 °F 69% 30.23 in 9.0 mi NE 11.5 mph - 0.00 in   Clear
4:55 AM 30.2 °F 21.3 °F 23.0 °F 75% 30.24 in 10.0 mi NE 10.4 mph - 0.00 in   Clear
5:15 AM 30.2 °F 21.9 °F 23.0 °F 75% 30.24 in 10.0 mi NE 9.2 mph - 0.00 in   Clear
5:55 AM 30.2 °F 22.6 °F 23.0 °F 75% 30.25 in 10.0 mi NNE 8.1 mph - 0.00 in   Clear
6:15 AM 30.2 °F 22.6 °F 23.0 °F 75% 30.26 in 10.0 mi NNE 8.1 mph - 0.00 in   Clear
6:35 AM 30.2 °F 21.3 °F 23.0 °F 75% 30.26 in 10.0 mi NNE 10.4 mph - 0.00 in   Clear
6:50 AM 30.2 °F 20.8 °F 23.0 °F 75% 30.26 in 10.0 mi NNE 11.5 mph - N/A   Clear
7:50 AM 32.0 °F 23.0 °F 23.0 °F 69% 30.30 in 10.0 mi NE 11.5 mph - N/A   Partly Cloudy
8:50 AM 33.8 °F 25.3 °F 21.2 °F 60% 30.30 in 10.0 mi NE 11.5 mph 20.7 mph N/A   Partly Cloudy
9:50 AM 37.4 °F 29.8 °F 21.2 °F 52% 30.28 in 10.0 mi ENE 11.5 mph 20.7 mph N/A   Partly Cloudy
10:50 AM 41.0 °F 34.3 °F 19.4 °F 42% 30.29 in 10.0 mi NE 11.5 mph - N/A   Scattered Clouds
11:50 AM 44.6 °F 40.2 °F 19.4 °F 37% 30.27 in 10.0 mi ENE 8.1 mph - N/A   Scattered Clouds
12:50 PM 48.2 °F - 19.4 °F 32% 30.24 in 10.0 mi NE 9.2 mph - N/A   Scattered Clouds
1:50 PM 48.2 °F - 21.2 °F 34% 30.21 in 10.0 mi NNE 11.5 mph - N/A   Scattered Clouds
2:50 PM 48.2 °F - 21.2 °F 34% 30.19 in 10.0 mi NNE 11.5 mph - N/A   Mostly Cloudy
3:50 PM 48.2 °F - 21.2 °F 34% 30.17 in 10.0 mi NE 10.4 mph - N/A   Mostly Cloudy
4:50 PM 46.4 °F 41.1 °F 23.0 °F 40% 30.17 in 10.0 mi NNE 11.5 mph - N/A   Mostly Cloudy
5:50 PM 44.6 °F 40.7 °F 23.0 °F 43% 30.16 in 10.0 mi NE 6.9 mph - N/A   Mostly Cloudy
6:50 PM 41.0 °F 37.1 °F 26.6 °F 57% 30.16 in 10.0 mi North 5.8 mph - N/A   Mostly Cloudy
7:50 PM 41.0 °F 37.1 °F 24.8 °F 53% 30.14 in 10.0 mi NE 5.8 mph - N/A   Scattered Clouds
8:55 PM 42.8 °F 40.1 °F 24.8 °F 49% 30.14 in 9.0 mi NE 4.6 mph - 0.00 in   Overcast
9:15 PM 42.8 °F 39.3 °F 24.8 °F 49% 30.14 in 10.0 mi NNE 5.8 mph - 0.00 in   Overcast
9:35 PM 42.8 °F 40.1 °F 24.8 °F 49% 30.14 in 10.0 mi NNE 4.6 mph - 0.00 in   Overcast
9:55 PM 42.8 °F 38.6 °F 24.8 °F 49% 30.14 in 10.0 mi NNE 6.9 mph - 0.00 in   Overcast
10:15 PM 42.8 °F 39.3 °F 23.0 °F 46% 30.13 in 10.0 mi NE 5.8 mph - 0.00 in   Overcast
10:35 PM 42.8 °F 39.3 °F 24.8 °F 49% 30.13 in 10.0 mi NNE 5.8 mph - 0.00 in   Overcast
10:55 PM 42.8 °F 40.1 °F 23.0 °F 46% 30.13 in 10.0 mi NE 4.6 mph - 0.00 in   Overcast
11:15 PM 42.8 °F 38.6 °F 26.6 °F 53% 30.12 in 10.0 mi NE 6.9 mph - 0.00 in   Overcast
11:35 PM 42.8 °F 39.3 °F 24.8 °F 49% 30.11 in 10.0 mi NE 5.8 mph - 0.00 in   Overcast
11:55 PM 42.8 °F 38.6 °F 24.8 °F 49% 30.11 in 10.0 mi NE 6.9 mph - 0.00 in   Overcast